STARLINK-11475, 62226

Orbit data source: Space-Track

STARLINK-11475, 62226 is a payload satellite owned by SpaceX/Seattle (US) in LEO that was launched on Thu, 05 Dec 2024 UTC via an FALCON 9 launch vehicle from the Air Force Western Test Range (AFWTR). Payload-class satellites include a variety of spacecraft equipped with specific instruments for various scientific and technological missions. These include communications satellites like Starlink; space stations such as the ISS; scientific satellites like the Hubble; Earth observation satellites from companies like Planet Labs, Umbra, and HawkEye 360; GPS; miniature CubeSats for education and research; and military/defense satellites.

Loading next visibility...
Identifier
62226, 2024-231J
Orbit
LEO
Country
Flag of USUS
Related business
Manufacturer
SpaceX/Seattle
Mission
Operational Commercial Communications
Bus & Motor
STARLINK V2MD, Unknown motor
Mass
960 kg wet, ~910 kg dry
Launch date (UTC)
2024-12-05 (9 months ago)
Launch vehicle
FALCON 9
Launch site
Air Force Western Test Range (AFWTR)
Object type
Payload
Rocket body
Debris
Shape & HBR
Box + 2 Pan, 14.5 m
Radar Cross Section
36.964 m², Large (>1 m²)

Expand to show TLE details & history
Last TLE update: 11 hours ago

TLE from 11 hours ago
0 STARLINK-11475
1 62226U 24231J   25258.53527175  .00261705  00000-0  20900-2 0  9991
2 62226  53.1562 244.5550 0002195  87.3781 272.7488 15.69796718 45903
Epoch: 2025-09-15T12:50Z
TLE epoch observation values (Epoch: 2025-09-15T12:50:47.479Z)
Latitude
-0.00002°
Longitude
57.11863°
Altitude
360.323 km
Speed
7.694 km/s
True Right ascension
16h 18m 13s
True Declination
0° 00' 00"
Sunlit
Object was in daylight at epoch
Visualization orbit readout
Latitude
Unknown
Longitude
Unknown
Altitude
Unknown
Speed
Unknown
Apparent Right ascension
Unknown
Apparent Declination
Unknown
Sunlit
N/A
Visualization observer readout
Local Sidereal Time
16:12:06
Azimuth
Unknown
Elevation
Unknown
Doppler factor
Unknown
Orbital elements
Apogee altitude
361.219 km
Perigee altitude
358.261 km
Semi-major axis
6,737.877 km
Eccentricity
0.00022
Inclination
53.1562°
RAAN
244.555°
Arg. of periapsis
87.3781°
True anomaly
272.72368°
Mean anomaly
272.7488°
Eccentric anomaly
272.73624°
Mean motion
3.92427 °/min
Orbital period
91.74 mins
BSTAR
0.00209
Loading maneuver chart data...
Computing Atmospheric mass density...
Loading historical data...
Loading historical data...
Loading historical data...
Loading historical data...
Loading historical data...
Loading historical data...
Loading historical data...

Documentation

Showing up to 5 results
|